Regional Weather Roundup
Issued by NWS

Home | Current Version | Previous Version | Graphics & Text | Print | Product List | Glossary Off
Versions: 1 2 3 4 5 6 7 8 9 10 11 12 13 14 15 16 17 18 19 20 21 22 23 24 25 26 27 28 29 30 31 32 33 34 35 36 37 38 39 40 41 42 43 44 45 46 47 48 49 50

000
ASUS43 KMPX 202301
RWRMN
WEATHER ROUNDUP FOR MINNESOTA
NATIONAL WEATHER SERVICE TWIN CITIES/CHANHASSEN MN
600 PM CDT THU JUL 20 2017


NOTE: "FAIR" INDICATES FEW OR NO CLOUDS BELOW 12,000 FEET WITH NO
SIGNIFICANT WEATHER AND/OR OBSTRUCTIONS TO VISIBILITY. N/A MEANS
CURRENT SKY AND/OR WEATHER CONDITIONS ARE NOT AVAILABLE.

MNZ060>063-068>070-210000-
   Twin Cities Metro

CITY           SKY/WX    TMP DP  RH WIND       PRES   REMARKS
TWIN CITIES    MOSUNNY   88  59  37 VRB5      29.99F
ST PAUL        SUNNY     87  64  46 SW6       29.99F
CRYSTAL        SUNNY     87  62  43 W6        29.98F
BLAINE         SUNNY     90  63  40 W6        30.00F HX  90
LAKEVILLE      MOSUNNY   84  70  61 CALM      30.00F
EDEN PRAIRIE   SUNNY     88  66  48 CALM      29.99F HX  90
SOUTH ST PAUL  SUNNY     87  59  38 W5        29.99F
LAKE ELMO      FAIR      86  68  54 SW5       30.01F
$$
MNZ001>005-007-008-013>017-022>024-027-028-210000-
   Northwest Minnesota

CITY           SKY/WX    TMP DP  RH WIND       PRES   REMARKS
BEMIDJI        SUNNY     83  56  40 W6        29.97F
HALLOCK        SUNNY     79  55  44 CALM      29.95S
ROSEAU         SUNNY     77  64  65 CALM      29.97S
WARROAD        SUNNY     77  61  57 SW6       29.97F
CROOKSTON      SUNNY     82  61  47 CALM      29.95F
FOSSTON        SUNNY     84  59  42 CALM      29.97F
DETROIT LAKES  SUNNY     82  64  54 S9        29.98F
MOORHEAD       SUNNY     84  61  45 S9        29.94F
PARK RAPIDS    SUNNY     89  52  28 SW5       29.97F
MAHNOMEN       FAIR      83  60  45 SW3       29.96F
$$
MNZ006-009>011-018-025>026-210000-
   North Central Minnesota

CITY           SKY/WX    TMP DP  RH WIND       PRES   REMARKS
BAUDETTE       SUNNY     76  53  44 N5        29.98S
FLAG ISLAND    SUNNY     72  54  53 SE5       29.96F
INTL FALLS     SUNNY     76  54  46 W6        29.97S
WASKISH        PTSUNNY   79  63  57 W7        29.97S
BIG FORK       SUNNY     81  59  47 SW5       29.97F
LONGVILLE      SUNNY     84  59  42 S5        29.97F
GRAND RAPIDS   SUNNY     81  61  50 W6        30.00F
CRANE LAKE     SUNNY     77  54  44 N3        29.97F
ORR            MOSUNNY   79  52  38 NW5       29.94F
COOK           MOSUNNY   81  57  44 W3        29.97F
WALKER         FAIR      82  62  50 E3        29.96F
$$
MNZ012-019>021-037-210000-
   Northeast Minnesota

CITY           SKY/WX    TMP DP  RH WIND       PRES   REMARKS
DULUTH         SUNNY     83  58  42 NW5       29.97F
ELY            SUNNY     79  55  44 W9        29.97S
HIBBING        SUNNY     80  57  45 W5        29.97F
EVELETH        SUNNY     81  44  27 W6        29.98F
DULUTH HARBOR  SUNNY     86  64  48 W9        29.93F
TWO HARBORS    SUNNY     84  63  48 W7        29.93F
SILVER BAY     SUNNY     82  55  39 W3        29.93F
GRAND MARAIS     N/A     60  57  89 SW10      29.91F
G MARAIS ARPRT SUNNY     73  54  49 W3        29.98S
$$
MNZ029>031-032-039>041-046>048-054>057-064-210000-
   West Central Minnesota

CITY           SKY/WX    TMP DP  RH WIND       PRES   REMARKS
FERGUS FALLS   SUNNY     84  68  58 S9        29.94F
WHEATON        SUNNY     84  66  54 SE7       29.96F
MORRIS         SUNNY     88  66  48 SE10      29.96F HX  90
ALEXANDRIA     SUNNY     83  67  58 SW9       30.01F
ELBOW LAKE     FAIR      83  69  63 S6        29.98F
WADENA         SUNNY     84  66  54 S9        29.98F
GLENWOOD       SUNNY     84  68  58 SW6       30.01F
APPLETON       SUNNY     86  64  48 SE6       29.96F
BENSON         SUNNY     86  68  54 S8        29.99F
ORTONVILLE     SUNNY     84  66  54 SE6       29.96
MADISON        SUNNY     88  66  48 SE8       29.97F HX  90
WILLMAR        FAIR      84  68  58 CALM      30.01F
$$
MNZ033>034-036-042>043-049>051-058-059-210000-
   Central Minnesota

CITY           SKY/WX    TMP DP  RH WIND       PRES   REMARKS
ST CLOUD       SUNNY     85  68  56 SW9       29.99F
SAUK CENTRE    FAIR      84  66  54 SW6       30.00F
PAYNESVILLE    SUNNY     84  68  58 SW6       30.00F
AITKIN         SUNNY     82  61  47 SW3       29.97F
PINE RIVER     SUNNY     84  63  48 MISG      30.00F
BRAINERD       SUNNY     84  60  44 SW9       29.98F
STAPLES        SUNNY     84  64  51 S9        29.98F
LONG PRAIRIE   FAIR      82  68  61 S8        30.00F
LITTLE FALLS   SUNNY     84  61  45 SW7       30.00F
LITCHFIELD     SUNNY     88  70  55 CALM      30.00F HX  92
BUFFALO        SUNNY     85  62  46 S5        30.00F
MAPLE LAKE     SUNNY     85  69  57 CALM      30.00F
HUTCHINSON     SUNNY     85  71  64 CALM      30.02F HX  90
$$
MNZ037-044-045-052-053-210000-
   East Central Minnesota

CITY           SKY/WX    TMP DP  RH WIND       PRES   REMARKS
PRINCETON      SUNNY     86  66  51 SW5       29.99F
MORA           SUNNY     82  64  54 SW8       30.01F
CAMBRIDGE      SUNNY     88  70  55 SW6       29.98F HX  92
RUSH CITY      SUNNY     84  63  49 CALM      29.99F HAZE
MOOSE LAKE     SUNNY     82  63  51 SW5       29.96F
HINCKLEY       FAIR      84  61  45 W5        29.99S
CLOQUET        SUNNY     82  57  42 SW8       29.97F
MCGREGOR       SUNNY     84  57  39 SW5       29.99S
$$
MNZ071>073-080-081-089-090-097-098-210000-
   Southwest Minnesota

CITY           SKY/WX    TMP DP  RH WIND       PRES   REMARKS
MONTEVIDEO     SUNNY     90  66  45 S3        29.98F HX  92
GRANITE FALLS  SUNNY     87  67  51 E5        30.00F HX  90
CANBY          SUNNY     87  64  46 CALM      29.99F
MARSHALL       SUNNY     85  68  56 E10       29.98F
REDWOOD FALLS  SUNNY     85  68  56 E3        29.98F
OLIVIA         SUNNY     82  64  54 S3        29.99F
PIPESTONE      SUNNY     88  63  42 SE9       29.99F
WINDOM         MOSUNNY   84  68  58 NE8       30.00F
WORTHINGTON    MOSUNNY   83  69  62 E10       30.00F
JACKSON        CLOUDY    82  70  65 CALM      30.01F
TRACY          SUNNY     85  70  59 E7        29.99F HX  90
SLAYTON        SUNNY     83  65  54 E10       30.01F
$$
MNZ065>067-074>077-082>085-091>093-210000-
   South Central Minnesota

CITY           SKY/WX    TMP DP  RH WIND       PRES   REMARKS
MANKATO        MOSUNNY   85  68  56 E3        30.00F
NEW ULM        SUNNY     84  66  54 CALM      29.99F
ST JAMES       CLOUDY    82  72  69 N8        29.99F
FAIRMONT       MOSUNNY   83  75  77 NE8       30.00S HX  90
GLENCOE        SUNNY     85  72  63 CALM      30.00F HX  91
FARIBAULT      CLOUDY    84  70  61 N3        30.01F
OWATONNA       CLOUDY    84  72  65 NE6       30.01F
WASECA         MOSUNNY   82  70  65 N7        30.01F
ALBERT LEA     MOSUNNY   82  72  69 NE10      29.99F
$$
MNZ078>079-086>088-094>096-210000-
   Southeast Minnesota

CITY           SKY/WX    TMP DP  RH WIND       PRES   REMARKS
ROCHESTER      MOSUNNY   84  68  58 N8        30.02F
RED WING       SUNNY     84  66  54 CALM      29.98F
STANTON        CLOUDY    85  71  62 N3        29.99F HX  90
DODGE CENTER   SUNNY     82  70  65 N5        30.02F
WINONA         MOSUNNY   82  70  65 NW6       29.99S
AUSTIN         CLOUDY    82  72  69 NE6       29.99F
PRESTON        CLOUDY    80  71  73 N7        30.02S
$$
ABBREVIATIONS USED IN REMARKS
   TC - TEMPERATURES IN CELSIUS
  WCI - WIND CHILL INDEX
   HX - HEAT INDEX
  VSB - VISIBILITY
$$




USA.gov is the U.S. government's official web portal to all federal, state and local government web resources and services.